Location: Marcé
(47.5801°N, 0.3280°W)
Time: 19:43:07
(UTC+01:00)

Tiros 1 despin weight - Pass Details

Date: 12 December 2021
Orbit: 592 x 641 km, 48.2° (Epoch: 16 January)

Event Time Altitude Azimuth Distance (km) Brightness Sun altitude
Rises 16:48:53 0° 284° (WNW) 2,832 ? 2.0°
Reaches altitude 10° 16:51:28 10° 271° (W) 1,924 ? 1.7°
Maximum altitude 16:55:04 25° 216° (SW) 1,202 ? 1.2°
Drops below altitude 10° 16:58:40 10° 161° (SSE) 1,914 ? 0.7°
Sets 17:01:14 0° 148° (SSE) 2,815 ? 0.3°
